Hourly Weather Bolshie Shady

Today, 20 June, Sunday

Time Temperature Precipitation Wind Pressure Humidity
00:00 +20°C° 0 mm 6 mps 750 mmHg 87%
01:00 +19°C° 0 mm 6 mps 750 mmHg 89%
02:00 +19°C° 0 mm 5 mps 750 mmHg 90%
03:00 +19°C° 0 mm 5 mps 750 mmHg 91%
04:00 +17°C° 0 mm 5 mps 750 mmHg 91%
05:00 +19°C° 0 mm 5 mps 750 mmHg 88%
06:00 +20°C° 0 mm 5 mps 751 mmHg 85%
07:00 +21°C° 0 mm 5 mps 751 mmHg 82%
08:00 +22°C° 0 mm 5 mps 751 mmHg 74%
09:00 +23°C° 0 mm 6 mps 752 mmHg 66%
10:00 +23°C° 0 mm 6 mps 752 mmHg 59%
11:00 +24°C° 0 mm 6 mps 752 mmHg 54%
12:00 +24°C° 0 mm 7 mps 753 mmHg 50%
13:00 +24°C° 0 mm 7 mps 753 mmHg 46%
14:00 +23°C° 0 mm 7 mps 753 mmHg 47%
15:00 +23°C° 0 mm 6 mps 753 mmHg 47%
16:00 +22°C° 0 mm 6 mps 754 mmHg 48%
17:00 +21°C° 0 mm 5 mps 754 mmHg 52%
18:00 +20°C° 0 mm 4 mps 754 mmHg 56%
19:00 +19°C° 0 mm 4 mps 754 mmHg 60%
20:00 +18°C° 0 mm 3 mps 754 mmHg 63%
21:00 +16°C° 0 mm 2 mps 755 mmHg 65%
22:00 +15°C° 0 mm 2 mps 755 mmHg 68%
23:00 +14°C° 0 mm 2 mps 755 mmHg 67%

Tomorrow, 21 June, Monday

Time Temperature Precipitation Wind Pressure Humidity
00:00 +13°C° 0 mm 1 mps 755 mmHg 67%
01:00 +13°C° 0 mm 1 mps 755 mmHg 67%
02:00 +12°C° 0 mm 1 mps 756 mmHg 67%
03:00 +12°C° 0 mm 1 mps 756 mmHg 68%
04:00 +11°C° 0 mm 0 mps 756 mmHg 68%
05:00 +12°C° 0 mm 0 mps 757 mmHg 65%
06:00 +14°C° 0 mm 0 mps 757 mmHg 62%
07:00 +18°C° 0 mm 1 mps 757 mmHg 58%
08:00 +19°C° 0 mm 1 mps 757 mmHg 54%
09:00 +21°C° 0 mm 1 mps 757 mmHg 51%
10:00 +22°C° 0 mm 1 mps 757 mmHg 47%
11:00 +23°C° 0 mm 1 mps 757 mmHg 46%
12:00 +24°C° 0 mm 1 mps 757 mmHg 46%
13:00 +25°C° 0 mm 2 mps 757 mmHg 46%
14:00 +24°C° 0 mm 2 mps 756 mmHg 52%
15:00 +23°C° 0 mm 2 mps 756 mmHg 59%
16:00 +21°C° 0 mm 2 mps 756 mmHg 65%
17:00 +21°C° 0 mm 2 mps 755 mmHg 68%
18:00 +23°C° 0 mm 2 mps 755 mmHg 71%
19:00 +23°C° 0 mm 2 mps 754 mmHg 73%
20:00 +20°C° 0 mm 2 mps 754 mmHg 78%
21:00 +19°C° 0 mm 2 mps 754 mmHg 83%
22:00 +18°C° 0 mm 2 mps 754 mmHg 88%
23:00 +18°C° 0.2 mm 2 mps 754 mmHg 90%

Day after tomorrow, 22 June, Tuesday

Time Temperature Precipitation Wind Pressure Humidity
00:00 +17°C° 0.2 mm 2 mps 754 mmHg 91%
01:00 +18°C° 0.2 mm 1 mps 754 mmHg 92%
02:00 +18°C° 0.1 mm 1 mps 754 mmHg 93%
03:00 +18°C° 0.1 mm 1 mps 754 mmHg 94%
04:00 +18°C° 0.1 mm 1 mps 753 mmHg 95%
05:00 +19°C° 0.1 mm 1 mps 754 mmHg 92%
06:00 +21°C° 0.1 mm 1 mps 754 mmHg 90%
07:00 +21°C° 0.1 mm 2 mps 754 mmHg 88%
08:00 +24°C° 0 mm 2 mps 754 mmHg 81%
09:00 +26°C° 0 mm 3 mps 753 mmHg 75%
10:00 +28°C° 0 mm 3 mps 753 mmHg 68%
11:00 +29°C° 0 mm 4 mps 753 mmHg 63%
12:00 +30°C° 0 mm 4 mps 753 mmHg 58%
13:00 +32°C° 0 mm 4 mps 753 mmHg 53%
14:00 +32°C° 0 mm 4 mps 753 mmHg 54%
15:00 +32°C° 0 mm 4 mps 753 mmHg 54%
16:00 +32°C° 0 mm 4 mps 753 mmHg 55%
17:00 +30°C° 0 mm 4 mps 753 mmHg 60%
18:00 +28°C° 0 mm 4 mps 752 mmHg 64%
19:00 +27°C° 0 mm 4 mps 752 mmHg 68%
20:00 +26°C° 0 mm 3 mps 752 mmHg 71%
21:00 +24°C° 0 mm 3 mps 752 mmHg 74%
22:00 +23°C° 0 mm 2 mps 752 mmHg 77%
23:00 +21°C° 0 mm 2 mps 752 mmHg 80%

23 June, Wednesday

Time Temperature Precipitation Wind Pressure Humidity
00:00 +21°C° 0 mm 2 mps 752 mmHg 84%
01:00 +20°C° 0 mm 3 mps 752 mmHg 88%
02:00 +20°C° 0 mm 2 mps 752 mmHg 89%
03:00 +20°C° 0 mm 2 mps 752 mmHg 90%
04:00 +19°C° 0 mm 2 mps 752 mmHg 91%
05:00 +20°C° 0 mm 2 mps 752 mmHg 87%
06:00 +21°C° 0 mm 2 mps 752 mmHg 84%
07:00 +24°C° 0 mm 3 mps 752 mmHg 80%
08:00 +25°C° 0 mm 3 mps 752 mmHg 75%
09:00 +26°C° 0 mm 3 mps 752 mmHg 69%
10:00 +28°C° 0 mm 4 mps 752 mmHg 64%
11:00 +29°C° 0 mm 4 mps 752 mmHg 61%
12:00 +30°C° 0 mm 4 mps 752 mmHg 58%
13:00 +32°C° 0 mm 5 mps 752 mmHg 55%
14:00 +32°C° 0.1 mm 4 mps 752 mmHg 55%
15:00 +32°C° 0.1 mm 4 mps 751 mmHg 55%
16:00 +32°C° 0.1 mm 4 mps 751 mmHg 54%
17:00 +29°C° 1.4 mm 3 mps 751 mmHg 64%
18:00 +27°C° 1.4 mm 2 mps 751 mmHg 74%
19:00 +25°C° 1.4 mm 2 mps 751 mmHg 84%
20:00 +23°C° 2.4 mm 2 mps 751 mmHg 88%
21:00 +22°C° 2.4 mm 1 mps 752 mmHg 92%
22:00 +20°C° 2.4 mm 1 mps 752 mmHg 95%
23:00 +18°C° 0.1 mm 2 mps 752 mmHg 95%

24 June, Thursday

Time Temperature Precipitation Wind Pressure Humidity
00:00 +18°C° 0.1 mm 2 mps 752 mmHg 95%
01:00 +17°C° 0.1 mm 2 mps 752 mmHg 94%
02:00 +16°C° 0 mm 2 mps 752 mmHg 94%
03:00 +14°C° 0 mm 3 mps 752 mmHg 93%
04:00 +14°C° 0 mm 3 mps 752 mmHg 93%
05:00 +14°C° 0 mm 3 mps 752 mmHg 89%
06:00 +15°C° 0 mm 4 mps 753 mmHg 86%
07:00 +17°C° 0 mm 4 mps 753 mmHg 82%
08:00 +19°C° 0 mm 5 mps 753 mmHg 72%
09:00 +20°C° 0 mm 5 mps 753 mmHg 61%
10:00 +22°C° 0 mm 5 mps 753 mmHg 50%
11:00 +23°C° 0 mm 5 mps 753 mmHg 47%
12:00 +25°C° 0 mm 5 mps 754 mmHg 44%
13:00 +26°C° 0 mm 5 mps 754 mmHg 41%
14:00 +26°C° 0 mm 4 mps 754 mmHg 42%
15:00 +26°C° 0 mm 4 mps 754 mmHg 42%
16:00 +26°C° 0 mm 3 mps 754 mmHg 42%
17:00 +25°C° 0 mm 3 mps 754 mmHg 51%
18:00 +24°C° 0 mm 2 mps 754 mmHg 59%
19:00 +23°C° 0 mm 2 mps 754 mmHg 68%
20:00 +20°C° 0 mm 2 mps 754 mmHg 74%
21:00 +18°C° 0 mm 2 mps 754 mmHg 80%
22:00 +17°C° 0 mm 2 mps 754 mmHg 85%
23:00 +16°C° 0 mm 2 mps 754 mmHg 87%

25 June, Friday

Time Temperature Precipitation Wind Pressure Humidity
00:00 +16°C° 0 mm 2 mps 754 mmHg 88%
01:00 +15°C° 0 mm 2 mps 754 mmHg 90%
02:00 +15°C° 0 mm 2 mps 754 mmHg 91%
03:00 +15°C° 0 mm 2 mps 754 mmHg 92%
04:00 +14°C° 0 mm 2 mps 754 mmHg 93%
05:00 +16°C° 0 mm 3 mps 754 mmHg 87%
06:00 +17°C° 0 mm 3 mps 754 mmHg 81%
07:00 +19°C° 0 mm 3 mps 754 mmHg 76%
08:00 +20°C° 0 mm 3 mps 754 mmHg 72%
09:00 +21°C° 0 mm 4 mps 754 mmHg 67%
10:00 +23°C° 0 mm 4 mps 753 mmHg 63%
11:00 +25°C° 0 mm 3 mps 753 mmHg 61%
12:00 +26°C° 0 mm 3 mps 753 mmHg 59%
13:00 +27°C° 0 mm 3 mps 753 mmHg 56%
14:00 +27°C° 0 mm 3 mps 752 mmHg 57%
15:00 +28°C° 0 mm 3 mps 752 mmHg 57%
16:00 +28°C° 0 mm 2 mps 752 mmHg 57%
17:00 +28°C° 0 mm 2 mps 751 mmHg 63%
18:00 +27°C° 0 mm 2 mps 751 mmHg 69%
19:00 +27°C° 0 mm 1 mps 751 mmHg 74%
20:00 +25°C° 0.1 mm 1 mps 751 mmHg 79%
21:00 +24°C° 0.1 mm 2 mps 751 mmHg 83%
22:00 +21°C° 0.1 mm 2 mps 750 mmHg 88%
23:00 +20°C° 0.3 mm 2 mps 750 mmHg 89%
Show more